Flag for U.S.A. Weather past 2 weeks in Temple, Texas, U.S.A.

Now
80 °F

Passing clouds.


Feels Like: 82 °F
Forecast: 76 / 92 °F
Wind: 10 mph from Southeast

Location: Fort Hood AAF Airport

Current Time: Jul 31, 2014 at 3:27:14 AM

Latest Report: Jul 31, 2014 at 2:56 AM


Visibility: 10 mi

Pressure: 29.95 "Hg

Humidity: 56%

Dew point: 63 °F

Location of TempleLocation

Historic Weather in Temple — Graph

°F

Temple temperature yesterday

Maximum temperature yesterday: 96 °F (at 2:56 PM)
Minimum temperature yesterday: 76 °F (at 6:56 AM)
Average temperature yesterday: 85 °F

Past Weeks' High & Low Weather Summary

 TemperatureHumidityPressure
High101 °F (Jul 27, 3:56 PM)94% (Jul 18, 4:56 AM)30.20 "Hg (Jul 18, 4:56 AM)
Low69 °F (Jul 19, 5:56 AM)30% (Jul 27, 3:56 PM)29.84 "Hg (Jul 17, 4:56 PM)
Average84 °F64%30.02 "Hg
* Reported Jul 16 1:56 AM — Jul 31 1:56 AM, Temple, Weather by CustomWeather, © 2014

Note: Actual official high and low records may vary slightly from our data, if they occured in-between our weather recording intervals... More about our weather records

Advertising

Temple weather history for previous 24 hours

 ConditionsComfort  
Time TempWeatherWind HumidityBarometerVisibility
1:56 AM
Jul 31
81 °FPassing clouds.12 mph58%29.96 "Hg10 mi
12:56 AM82 °FClear.10 mph63%30.01 "Hg10 mi
11:56 PM
Jul 30
84 °FClear.12 mph63%29.95 "Hg10 mi
10:56 PM86 °FClear.10 mph57%29.94 "Hg10 mi
9:56 PM87 °FClear.7 mph53%29.93 "Hg10 mi
8:56 PM89 °FSunny.9 mph48%29.91 "Hg10 mi
7:56 PM92 °FSunny.7 mph41%29.91 "Hg10 mi
6:56 PM94 °FSunny.12 mph35%29.91 "Hg10 mi
5:56 PM95 °FSunny.10 mph35%29.92 "Hg10 mi
4:56 PM94 °FSunny.12 mph38%29.94 "Hg10 mi
3:56 PM95 °FSunny.10 mph39%29.95 "Hg10 mi
2:56 PM96 °FSunny.13 mph38%29.97 "Hg10 mi
1:56 PM94 °FSunny.12 mph43%30.00 "Hg10 mi
12:56 PM92 °FSunny.9 mph49%30.03 "Hg10 mi
11:56 AM87 °FSunny.12 mph57%30.05 "Hg10 mi
10:56 AM82 °FSunny.9 mph70%30.06 "Hg10 mi
9:56 AM80 °FSunny.6 mph74%30.12 "Hg10 mi
8:56 AM78 °FSunny.6 mph79%30.12 "Hg10 mi
7:56 AM76 °FSunny.3 mph85%30.05 "Hg10 mi
6:56 AM76 °FClear.7 mph82%30.05 "Hg10 mi
5:56 AM77 °FClear.7 mph82%30.10 "Hg10 mi
4:56 AM77 °FClear.8 mph82%30.04 "Hg10 mi
3:56 AM77 °FClear.6 mph85%30.04 "Hg10 mi
Weather by CustomWeather, © 2014

See weather overviewHow to use our weather pages